[Show "Revision History"] [Show "General Page Infos"] [Show "Page hits and edits"]

Revision History

Showing page edit history entries from 1 to 47 out of 47 entries total. (5 | 10 | 25 | 50 | 100 | 200 items per page)

# Date Size Editor Comment Action
47 2012-01-05 15:39:23 3853 to previous MattBenson spam view
46 2012-01-05 15:21:50 4122 to previous Nagelstudio   view
45 2011-07-27 17:07:04 3853 to previous MattBenson   view
44 2009-09-20 23:48:23 3671 to previous localhost converted to 1.6 markup view
43 2009-09-08 14:06:06 3662 to previous Donald Woods added Validator2 view
42 2008-06-11 20:44:12 3631 to previous MattBenson   view
41 2008-06-11 20:42:57 3631 to previous MattBenson   view
40 2008-06-11 20:41:28 3599 to previous MattBenson   view
39 2006-01-16 20:59:36 3594 to previous JörgSchaible Add commons-test view
38 2005-12-02 03:03:09 3571 to previous HenriYandell An attempt at an update. view
37 2005-10-11 13:08:09 3520 to previous JörgSchaible Updated status of AltRMI view
36 2005-10-11 13:03:49 3460 to previous JörgSchaible Revert to revision 34. view
35 2005-10-11 12:31:45 3475 to previous williamVerdeil   view
34 2005-08-28 23:33:59 3460 to previous HenriYandell All promoted components should have had their old directories removed now. view
33 2005-08-28 23:14:11 3567 to previous HenriYandell   view
32 2005-08-22 12:37:56 3231 to previous StephenColebourne Add some comments about various projects view
31 2005-08-22 01:51:32 2887 to previous RahulAkolkar Published SCXML, website patches needing Proper karma will be posted tomorrow view
30 2005-08-21 23:33:29 2889 to previous HenriYandell Reformatted into a tabular structure. view
29 2005-08-10 05:28:23 2637 to previous RahulAkolkar Small change, but not sure if adding a component is considered a trivial one ;-) view
28 2005-07-24 15:17:27 2538 to previous RobertBurrellDonkin   view
27 2005-03-15 05:21:42 2479 to previous KevinBurton   view
26 2005-02-16 07:06:13 2465 to previous KevinBurton   view
25 2005-01-27 19:58:21 2465 to previous KevinBurton   view
24 2004-11-26 23:29:35 2452 to previous mailext Chain and Resources are in Commons Proper now. view
23 2004-11-26 23:21:15 2579 to previous OliverZeigermann   view
22 2004-11-26 06:29:58 2640 to previous MatthewSgarlata   view
21 2004-11-25 09:18:14 2626 to previous EricPugh   view
20 2004-07-12 15:45:54 2749 to previous h236n6c1o255 Removed Attributes as it has been promoted. view
19 2004-07-12 13:21:13 2821 to previous host217-42-133-41   view
18 2004-07-12 12:39:23 2700 to previous c213-100-50-62   view
17 2004-07-09 23:47:09 2664 to previous c-65-34-226-232   view
16 2004-07-09 21:54:13 2716 to previous 219   view
15 2004-07-09 08:54:58 2664 to previous bodewig remove spam view
14 2004-07-09 08:52:13 2782 to previous 219   view
13 2004-05-30 08:04:59 2664 to previous host217-42-133-87   view
12 2004-05-29 21:46:26 2346 to previous HenriYandell   view
11 2004-05-29 21:37:10 2156 to previous HenriYandell   view
10 2004-05-29 21:12:32 2188 to previous HenriYandell   view
9 2004-05-29 20:39:19 1921 to previous HenriYandell   view
8 2004-05-29 20:31:44 1655 to previous 12-220-74-99   view
7 2004-05-27 22:16:55 1409 to previous host217-42-133-87   view
6 2004-05-27 21:04:06 1174 to previous host155   view
5 2004-05-27 20:57:23 1127 to previous host217-42-133-87   view
4 2004-05-27 20:33:18 1040 to previous host155   view
3 2004-05-27 20:31:55 1021 to previous host155   view
2 2004-05-20 13:45:47 976 to previous host155   view
1 2004-05-20 13:45:31 972 host155   view